| time (UTC) | temp C | wind direction | speed KPH | gust KPH | rain 1hr cm | rain 24hr cm | rain mn cm | humidity % | barometer mb |
| 20260507080042 | 16 | 135 | 1.6 | 3.2 | 0.00 | 0.00 | 0.00 | 50 | 1016.2 |
| 20260507075541 | 16 | 117 | 8.0 | 11.3 | 0.00 | 0.00 | 0.00 | 48 | 1016.2 |
| 20260507075043 | 17 | 112 | 3.2 | 4.8 | 0.00 | 0.00 | 0.00 | 41 | 1016.2 |
| 20260507074542 | 17 | 135 | 3.2 | 8.0 | 0.00 | 0.00 | 0.00 | 41 | 1016.3 |
| 20260507074042 | 16 | 121 | 3.2 | 9.7 | 0.00 | 0.03 | 0.00 | 40 | 1016.2 |
| 20260507073542 | 17 | 140 | 4.8 | 9.7 | 0.00 | 0.03 | 0.00 | 42 | 1016.3 |
| 20260507073041 | 16 | 135 | 1.6 | 4.8 | 0.00 | 0.03 | 0.00 | 43 | 1016.2 |
| 20260507072541 | 16 | 135 | 1.6 | 3.2 | 0.00 | 0.03 | 0.00 | 45 | 1016.2 |
| 20260507072042 | 16 | 144 | 3.2 | 8.0 | 0.00 | 0.03 | 0.00 | 43 | 1016.2 |
| 20260507071543 | 16 | 116 | 4.8 | 8.0 | 0.00 | 0.03 | 0.00 | 43 | 1016.2 |
| 20260507071042 | 16 | 146 | 3.2 | 4.8 | 0.00 | 0.03 | 0.00 | 44 | 1016.1 |
| 20260507070541 | 16 | 130 | 1.6 | 4.8 | 0.00 | 0.03 | 0.00 | 43 | 1016.1 |
| 20260507070043 | 17 | 135 | 3.2 | 4.8 | 0.00 | 0.03 | 0.00 | 44 | 1016.1 |
| 20260507065542 | 17 | 354 | 1.6 | 4.8 | 0.00 | 0.03 | 0.00 | 48 | 1016.1 |
| 20260507065043 | 16 | 321 | 1.6 | 3.2 | 0.00 | 0.03 | 0.00 | 50 | 1016.1 |
| 20260507064542 | 15 | 315 | 3.2 | 4.8 | 0.00 | 0.03 | 0.00 | 50 | 1016.1 |
| 20260507064041 | 15 | 270 | 1.6 | 3.2 | 0.00 | 0.03 | 0.00 | 51 | 1016.0 |
| 20260507063543 | 15 | 313 | 4.8 | 8.0 | 0.00 | 0.03 | 0.00 | 48 | 1016.0 |
| 20260507063042 | 15 | 250 | 0.0 | 0.0 | 0.00 | 0.03 | 0.00 | 52 | 1016.0 |
| 20260507062541 | 15 | 225 | 0.0 | 1.6 | 0.00 | 0.03 | 0.00 | 54 | 1015.9 |
| 20260507062043 | 13 | 236 | 0.0 | 1.6 | 0.00 | 0.03 | 0.00 | 54 | 1015.9 |
| 20260507061542 | 12 | 270 | 3.2 | 4.8 | 0.00 | 0.03 | 0.00 | 56 | 1015.9 |
| 20260507061041 | 12 | 267 | 8.0 | 9.7 | 0.00 | 0.03 | 0.00 | 58 | 1015.8 |
| 20260507060543 | 13 | 270 | 8.0 | 9.7 | 0.00 | 0.05 | 0.00 | 53 | 1015.9 |
| 20260507060041 | 14 | 270 | 3.2 | 4.8 | 0.00 | 0.05 | 0.00 | 56 | 1015.8 |
| 20260507055542 | 15 | 317 | 1.6 | 3.2 | 0.00 | 0.05 | 0.00 | 60 | 1016.0 |
| 20260507055042 | 13 | 225 | 0.0 | 0.0 | 0.00 | 0.05 | 0.00 | 63 | 1015.8 |
| 20260507054541 | 12 | 315 | 0.0 | 0.0 | 0.00 | 0.05 | 0.00 | 66 | 1015.8 |
| 20260507054043 | 11 | 315 | 1.6 | 3.2 | 0.00 | 0.05 | 0.00 | 74 | 1015.8 |
| 20260507053542 | 10 | 180 | 0.0 | 1.6 | 0.00 | 0.05 | 0.00 | 84 | 1015.8 |
| 20260507053042 | 8 | 180 | 0.0 | 1.6 | 0.00 | 0.05 | 0.00 | 88 | 1015.7 |
| 20260507052541 | 6 | 180 | 0.0 | 0.0 | 0.00 | 0.05 | 0.00 | 92 | 1015.6 |
| 20260507052042 | 6 | 180 | 1.6 | 3.2 | 0.00 | 0.10 | 0.00 | 91 | 1015.6 |
| 20260507051542 | 5 | 225 | 0.0 | 0.0 | 0.00 | 0.10 | 0.00 | 91 | 1015.5 |
| 20260507051041 | 5 | 225 | 0.0 | 0.0 | 0.00 | 0.13 | 0.00 | 91 | 1015.4 |
| 20260507050543 | 5 | 45 | 1.6 | 3.2 | 0.00 | 0.15 | 0.00 | 90 | 1015.4 |
| 20260507050042 | 5 | 180 | 0.0 | 1.6 | 0.00 | 0.18 | 0.00 | 90 | 1015.4 |
| 20260507045541 | 5 | 180 | 0.0 | 0.0 | 0.00 | 0.20 | 0.00 | 90 | 1015.3 |
| 20260507045041 | 5 | 180 | 1.6 | 1.6 | 0.00 | 0.23 | 0.00 | 89 | 1015.2 |
| 20260507044542 | 5 | 180 | 0.0 | 1.6 | 0.00 | 0.23 | 0.00 | 89 | 1015.1 |
| 20260507044042 | 5 | 180 | 0.0 | 0.0 | 0.00 | 0.28 | 0.00 | 89 | 1015.2 |
| 20260507043541 | 5 | 152 | 1.6 | 3.2 | 0.00 | 0.30 | 0.00 | 88 | 1015.0 |
| 20260507043043 | 5 | 315 | 0.0 | 0.0 | 0.00 | 0.33 | 0.00 | 88 | 1015.0 |
| 20260507042542 | 5 | 135 | 3.2 | 4.8 | 0.00 | 0.36 | 0.00 | 88 | 1014.9 |
| 20260507042041 | 5 | 169 | 4.8 | 9.7 | 0.00 | 0.38 | 0.00 | 87 | 1015.0 |
| 20260507041543 | 5 | 158 | 4.8 | 9.7 | 0.00 | 0.38 | 0.00 | 86 | 1014.8 |
| 20260507041042 | 6 | 266 | 1.6 | 3.2 | 0.00 | 0.43 | 0.00 | 86 | 1014.9 |
| 20260507040542 | 6 | 135 | 3.2 | 4.8 | 0.00 | 0.46 | 0.00 | 86 | 1014.9 |
| 20260507035547 | 6 | 138 | 4.8 | 4.8 | 0.00 | 0.46 | 0.00 | 85 | 1014.8 |
| 20260507035046 | 6 | 180 | 0.0 | 1.6 | 0.00 | 0.46 | 0.00 | 85 | 1014.8 |
| 20260507034548 | 6 | 135 | 0.0 | 0.0 | 0.00 | 0.46 | 0.00 | 85 | 1014.9 |
| 20260507034047 | 6 | 173 | 0.0 | 8.0 | 0.00 | 0.46 | 0.00 | 85 | 1014.8 |
| 20260507033547 | 6 | 229 | 0.0 | 1.6 | 0.00 | 0.46 | 0.00 | 85 | 1014.9 |
| 20260507033046 | 6 | 268 | 0.0 | 1.6 | 0.00 | 0.46 | 0.00 | 85 | 1014.9 |
| 20260507032548 | 6 | 180 | 1.6 | 4.8 | 0.00 | 0.46 | 0.00 | 86 | 1014.9 |
| 20260507032047 | 6 | 180 | 1.6 | 3.2 | 0.00 | 0.46 | 0.00 | 86 | 1014.9 |
| 20260507031548 | 6 | 193 | 0.0 | 1.6 | 0.00 | 0.48 | 0.00 | 86 | 1014.9 |
| 20260507031047 | 6 | 246 | 0.0 | 1.6 | 0.00 | 0.48 | 0.00 | 86 | 1015.1 |
| 20260507030547 | 6 | 180 | 3.2 | 4.8 | 0.00 | 0.48 | 0.00 | 85 | 1015.0 |
| 20260507030046 | 6 | 135 | 3.2 | 4.8 | 0.00 | 0.48 | 0.00 | 84 | 1015.1 |
| 20260507025547 | 6 | 180 | 0.0 | 1.6 | 0.00 | 0.48 | 0.00 | 84 | 1015.1 |
| 20260507025047 | 6 | 295 | 1.6 | 3.2 | 0.00 | 0.48 | 0.00 | 84 | 1015.2 |
| 20260507024546 | 7 | 158 | 0.0 | 0.0 | 0.00 | 0.48 | 0.00 | 85 | 1015.2 |
| 20260507024046 | 7 | 158 | 0.0 | 1.6 | 0.00 | 0.48 | 0.00 | 87 | 1015.1 |
| 20260507023546 | 7 | 180 | 0.0 | 1.6 | 0.00 | 0.48 | 0.00 | 84 | 1015.2 |
| 20260507023046 | 7 | 270 | 4.8 | 11.3 | 0.00 | 0.48 | 0.00 | 91 | 1015.1 |
| 20260507022547 | 6 | 192 | 1.6 | 3.2 | 0.00 | 0.48 | 0.00 | 92 | 1015.2 |
| 20260507022047 | 6 | 135 | 3.2 | 4.8 | 0.00 | 0.48 | 0.00 | 92 | 1015.1 |
| 20260507021546 | 6 | 192 | 1.6 | 3.2 | 0.00 | 0.48 | 0.00 | 92 | 1015.1 |
| 20260507021048 | 5 | 180 | 1.6 | 3.2 | 0.00 | 0.48 | 0.00 | 91 | 1015.1 |
| 20260507020547 | 5 | 214 | 1.6 | 3.2 | 0.00 | 0.48 | 0.00 | 91 | 1014.9 |
| 20260507020046 | 5 | 180 | 0.0 | 0.0 | 0.00 | 0.48 | 0.00 | 91 | 1015.0 |
| 20260507015547 | 5 | 135 | 0.0 | 1.6 | 0.00 | 0.48 | 0.00 | 91 | 1015.0 |
| 20260507015046 | 5 | 135 | 1.6 | 1.6 | 0.00 | 0.48 | 0.00 | 90 | 1014.9 |
| 20260507014548 | 5 | 135 | 0.0 | 0.0 | 0.00 | 0.48 | 0.00 | 90 | 1014.8 |
| 20260507014047 | 6 | 98 | 1.6 | 3.2 | 0.00 | 0.48 | 0.00 | 90 | 1014.9 |
| 20260507013548 | 5 | 225 | 1.6 | 3.2 | 0.00 | 0.48 | 0.00 | 90 | 1014.8 |
| 20260507013047 | 5 | 180 | 0.0 | 1.6 | 0.00 | 0.48 | 0.00 | 90 | 1014.8 |
| 20260507012548 | 5 | 270 | 0.0 | 0.0 | 0.00 | 0.48 | 0.00 | 90 | 1014.6 |
| 20260507012048 | 6 | 22 | 0.0 | 1.6 | 0.00 | 0.48 | 0.00 | 90 | 1014.7 |
| 20260507011549 | 6 | 135 | 1.6 | 4.8 | 0.00 | 0.48 | 0.00 | 90 | 1014.5 |
| 20260507011048 | 6 | 212 | 1.6 | 1.6 | 0.00 | 0.48 | 0.00 | 90 | 1014.5 |
| 20260507010549 | 6 | 31 | 1.6 | 3.2 | 0.00 | 0.48 | 0.00 | 90 | 1014.5 |
| 20260507010047 | 6 | 135 | 1.6 | 3.2 | 0.00 | 0.48 | 0.00 | 90 | 1014.4 |
| 20260507005549 | 6 | 180 | 0.0 | 1.6 | 0.00 | 0.48 | 0.00 | 90 | 1014.4 |
| 20260507005048 | 6 | 0 | 0.0 | 1.6 | 0.00 | 0.48 | 0.00 | 90 | 1014.3 |
| 20260507004548 | 6 | 159 | 4.8 | 9.7 | 0.00 | 0.48 | 0.00 | 90 | 1014.3 |
| 20260507004048 | 6 | 135 | 1.6 | 1.6 | 0.00 | 0.48 | 0.00 | 89 | 1014.3 |
| 20260507003547 | 6 | 186 | 1.6 | 4.8 | 0.00 | 0.48 | 0.00 | 89 | 1014.3 |
| 20260507003047 | 6 | 135 | 0.0 | 0.0 | 0.00 | 0.48 | 0.00 | 89 | 1014.2 |
| 20260507002548 | 6 | 135 | 1.6 | 3.2 | 0.00 | 0.48 | 0.00 | 89 | 1014.2 |
| 20260507002048 | 6 | 225 | 0.0 | 1.6 | 0.00 | 0.48 | 0.00 | 89 | 1014.2 |
| 20260507001547 | 6 | 147 | 4.8 | 4.8 | 0.00 | 0.48 | 0.00 | 89 | 1014.2 |
| 20260507001048 | 6 | 135 | 0.0 | 3.2 | 0.00 | 0.48 | 0.00 | 89 | 1014.3 |
| 20260507000548 | 7 | 135 | 8.0 | 9.7 | 0.00 | 0.48 | 0.00 | 89 | 1014.3 |
| 20260507000047 | 7 | 135 | 3.2 | 4.8 | 0.00 | 0.48 | 0.00 | 89 | 1014.2 |
| 20260506235547 | 6 | 135 | 0.0 | 1.6 | 0.00 | 0.48 | 0.00 | 89 | 1014.3 |
| 20260506235047 | 6 | 158 | 3.2 | 8.0 | 0.00 | 0.48 | 0.00 | 89 | 1014.3 |
| 20260506234547 | 7 | 135 | 0.0 | 1.6 | 0.00 | 0.48 | 0.00 | 89 | 1014.2 |
| 20260506234048 | 7 | 135 | 0.0 | 3.2 | 0.00 | 0.48 | 0.00 | 90 | 1014.1 |
| 20260506233548 | 7 | 135 | 0.0 | 0.0 | 0.00 | 0.48 | 0.00 | 90 | 1014.1 |
| 20260506233047 | 7 | 135 | 4.8 | 4.8 | 0.00 | 0.48 | 0.00 | 90 | 1014.1 |
| 20260506232547 | 7 | 135 | 1.6 | 3.2 | 0.00 | 0.48 | 0.00 | 89 | 1014.3 |
| 20260506232047 | 7 | 158 | 1.6 | 3.2 | 0.00 | 0.48 | 0.00 | 88 | 1014.2 |
| 20260506231547 | 7 | 158 | 1.6 | 4.8 | 0.00 | 0.48 | 0.00 | 87 | 1014.2 |
| 20260506231048 | 7 | 143 | 0.0 | 1.6 | 0.00 | 0.48 | 0.00 | 81 | 1014.3 |
| 20260506230548 | 7 | 135 | 1.6 | 4.8 | 0.00 | 0.48 | 0.00 | 81 | 1014.4 |
| 20260506230047 | 7 | 135 | 3.2 | 4.8 | 0.00 | 0.48 | 0.00 | 80 | 1014.3 |
| 20260506225548 | 7 | 135 | 0.0 | 1.6 | 0.00 | 0.48 | 0.00 | 80 | 1014.3 |
| 20260506225047 | 8 | 135 | 0.0 | 1.6 | 0.00 | 0.48 | 0.00 | 80 | 1014.4 |
| 20260506224547 | 8 | 143 | 3.2 | 4.8 | 0.00 | 0.48 | 0.00 | 80 | 1014.3 |
| 20260506224048 | 8 | 158 | 4.8 | 9.7 | 0.00 | 0.48 | 0.00 | 80 | 1014.3 |
| 20260506223548 | 8 | 158 | 0.0 | 1.6 | 0.00 | 0.48 | 0.00 | 80 | 1014.3 |
| 20260506223047 | 8 | 152 | 0.0 | 1.6 | 0.00 | 0.48 | 0.00 | 80 | 1014.4 |
| 20260506222548 | 8 | 152 | 3.2 | 4.8 | 0.00 | 0.48 | 0.00 | 77 | 1014.2 |
| 20260506222048 | 8 | 135 | 0.0 | 1.6 | 0.00 | 0.48 | 0.00 | 76 | 1014.0 |
| 20260506221547 | 8 | 135 | 0.0 | 0.0 | 0.00 | 0.48 | 0.00 | 75 | 1014.2 |
| 20260506221047 | 8 | 135 | 1.6 | 3.2 | 0.00 | 0.48 | 0.00 | 76 | 1014.1 |
| 20260506220548 | 8 | 137 | 4.8 | 9.7 | 0.00 | 0.48 | 0.00 | 75 | 1014.1 |
| 20260506220047 | 8 | 158 | 3.2 | 4.8 | 0.00 | 0.48 | 0.00 | 74 | 1014.1 |
| 20260506215548 | 8 | 158 | 1.6 | 1.6 | 0.00 | 0.48 | 0.48 | 74 | 1014.0 |
| 20260506215048 | 9 | 140 | 0.0 | 1.6 | 0.00 | 0.48 | 0.48 | 73 | 1014.0 |
| 20260506214547 | 9 | 135 | 3.2 | 4.8 | 0.00 | 0.48 | 0.48 | 72 | 1014.0 |
| 20260506214047 | 10 | 158 | 3.2 | 4.8 | 0.00 | 0.48 | 0.48 | 72 | 1014.0 |
| 20260506213548 | 10 | 135 | 0.0 | 1.6 | 0.00 | 0.48 | 0.48 | 71 | 1014.0 |
| 20260506213048 | 10 | 135 | 3.2 | 4.8 | 0.00 | 0.48 | 0.48 | 72 | 1013.9 |
| 20260506212547 | 10 | 136 | 3.2 | 4.8 | 0.00 | 0.48 | 0.48 | 71 | 1014.0 |
| 20260506212047 | 10 | 153 | 3.2 | 4.8 | 0.00 | 0.48 | 0.48 | 70 | 1013.8 |
| 20260506211548 | 10 | 135 | 3.2 | 4.8 | 0.00 | 0.48 | 0.48 | 70 | 1013.8 |
| 20260506211047 | 10 | 155 | 3.2 | 4.8 | 0.00 | 0.48 | 0.48 | 67 | 1013.9 |
| 20260506210548 | 11 | 146 | 4.8 | 8.0 | 0.00 | 0.48 | 0.48 | 67 | 1013.9 |
| 20260506210048 | 11 | 135 | 3.2 | 4.8 | 0.00 | 0.48 | 0.48 | 66 | 1013.8 |
| 20260506205547 | 11 | 135 | 0.0 | 0.0 | 0.00 | 0.48 | 0.48 | 64 | 1013.9 |
| 20260506205047 | 11 | 135 | 0.0 | 1.6 | 0.00 | 0.48 | 0.48 | 63 | 1013.8 |
| 20260506204548 | 12 | 154 | 3.2 | 9.7 | 0.00 | 0.48 | 0.48 | 62 | 1013.7 |
| 20260506204047 | 12 | 135 | 0.0 | 3.2 | 0.00 | 0.48 | 0.48 | 58 | 1013.5 |
| 20260506203547 | 13 | 112 | 0.0 | 0.0 | 0.00 | 0.48 | 0.48 | 53 | 1013.5 |
| 20260506203047 | 13 | 112 | 1.6 | 3.2 | 0.00 | 0.48 | 0.48 | 52 | 1013.2 |
| 20260506202548 | 13 | 129 | 1.6 | 3.2 | 0.00 | 0.48 | 0.48 | 50 | 1013.3 |
| 20260506202047 | 13 | 135 | 11.3 | 12.9 | 0.00 | 0.48 | 0.48 | 47 | 1013.2 |
| 20260506201547 | 14 | 158 | 3.2 | 4.8 | 0.00 | 0.48 | 0.48 | 45 | 1012.9 |
| 20260506201048 | 15 | 135 | 4.8 | 8.0 | 0.00 | 0.48 | 0.48 | 44 | 1012.9 |
| 20260506200548 | 14 | 135 | 11.3 | 14.5 | 0.00 | 0.48 | 0.48 | 45 | 1012.7 |
| 20260506200047 | 14 | 135 | 8.0 | 9.7 | 0.00 | 0.48 | 0.48 | 45 | 1012.6 |
| 20260506195548 | 14 | 118 | 3.2 | 4.8 | 0.00 | 0.48 | 0.48 | 45 | 1012.6 |
| 20260506195048 | 15 | 158 | 3.2 | 4.8 | 0.00 | 0.48 | 0.48 | 42 | 1012.5 |
| 20260506194547 | 15 | 147 | 3.2 | 4.8 | 0.00 | 0.48 | 0.48 | 42 | 1012.4 |
| 20260506194047 | 15 | 152 | 1.6 | 3.2 | 0.00 | 0.48 | 0.48 | 42 | 1012.3 |
| 20260506193547 | 15 | 135 | 8.0 | 16.1 | 0.00 | 0.48 | 0.48 | 41 | 1012.1 |
| 20260506193048 | 15 | 135 | 4.8 | 11.3 | 0.00 | 0.48 | 0.48 | 41 | 1012.0 |
| 20260506192548 | 15 | 135 | 9.7 | 12.9 | 0.00 | 0.48 | 0.48 | 41 | 1011.9 |
| 20260506192047 | 15 | 135 | 8.0 | 9.7 | 0.00 | 0.48 | 0.48 | 42 | 1011.8 |
| 20260506191547 | 15 | 135 | 3.2 | 4.8 | 0.00 | 0.48 | 0.48 | 41 | 1011.6 |
| 20260506191048 | 15 | 135 | 11.3 | 12.9 | 0.00 | 0.48 | 0.48 | 41 | 1011.6 |
| 20260506190548 | 15 | 135 | 11.3 | 16.1 | 0.00 | 0.48 | 0.48 | 41 | 1011.6 |
| 20260506190047 | 16 | 135 | 9.7 | 11.3 | 0.00 | 0.48 | 0.48 | 40 | 1011.5 |
| 20260506185547 | 16 | 135 | 3.2 | 11.3 | 0.00 | 0.48 | 0.48 | 39 | 1011.5 |
| 20260506185047 | 16 | 135 | 12.9 | 22.5 | 0.00 | 0.48 | 0.48 | 39 | 1011.5 |
| 20260506184546 | 16 | 138 | 3.2 | 8.0 | 0.00 | 0.48 | 0.48 | 38 | 1011.3 |
| 20260506184048 | 16 | 135 | 8.0 | 14.5 | 0.00 | 0.48 | 0.48 | 37 | 1011.2 |
| 20260506183547 | 16 | 135 | 9.7 | 12.9 | 0.00 | 0.48 | 0.48 | 37 | 1011.2 |
| 20260506183048 | 16 | 135 | 8.0 | 19.3 | 0.00 | 0.48 | 0.48 | 37 | 1011.1 |
| 20260506182547 | 16 | 135 | 4.8 | 9.7 | 0.00 | 0.48 | 0.48 | 40 | 1011.0 |
| 20260506182047 | 16 | 135 | 8.0 | 9.7 | 0.00 | 0.48 | 0.48 | 40 | 1010.8 |
| 20260506181548 | 16 | 135 | 11.3 | 12.9 | 0.00 | 0.48 | 0.48 | 40 | 1010.8 |
| 20260506181047 | 16 | 135 | 12.9 | 19.3 | 0.00 | 0.48 | 0.48 | 37 | 1010.8 |
| 20260506180548 | 16 | 138 | 12.9 | 19.3 | 0.00 | 0.48 | 0.48 | 37 | 1010.6 |
| 20260506180048 | 17 | 135 | 9.7 | 9.7 | 0.00 | 0.48 | 0.48 | 36 | 1010.6 |
| 20260506175547 | 17 | 135 | 3.2 | 4.8 | 0.00 | 0.48 | 0.48 | 35 | 1010.5 |
| 20260506175048 | 17 | 135 | 4.8 | 9.7 | 0.00 | 0.48 | 0.48 | 35 | 1010.4 |
| 20260506174548 | 17 | 135 | 11.3 | 16.1 | 0.00 | 0.48 | 0.48 | 34 | 1010.5 |
| 20260506174047 | 17 | 136 | 4.8 | 16.1 | 0.00 | 0.48 | 0.48 | 31 | 1010.5 |
| 20260506173547 | 18 | 135 | 12.9 | 14.5 | 0.00 | 0.48 | 0.48 | 30 | 1010.2 |
| 20260506173048 | 18 | 135 | 19.3 | 32.2 | 0.00 | 0.48 | 0.48 | 30 | 1010.2 |
| 20260506172548 | 18 | 152 | 16.1 | 27.4 | 0.00 | 0.48 | 0.48 | 30 | 1010.2 |
| 20260506172047 | 18 | 153 | 22.5 | 33.8 | 0.00 | 0.48 | 0.48 | 30 | 1010.2 |
| 20260506171547 | 18 | 135 | 14.5 | 19.3 | 0.00 | 0.48 | 0.48 | 30 | 1010.1 |
| 20260506171048 | 18 | 135 | 19.3 | 29.0 | 0.00 | 0.48 | 0.48 | 30 | 1010.1 |
| 20260506170548 | 18 | 135 | 22.5 | 38.6 | 0.00 | 0.48 | 0.48 | 30 | 1009.9 |
| 20260506170047 | 19 | 135 | 19.3 | 24.1 | 0.00 | 0.48 | 0.48 | 30 | 1009.9 |
| 20260506165548 | 18 | 135 | 20.9 | 27.4 | 0.00 | 0.48 | 0.48 | 30 | 1009.7 |
| 20260506165048 | 19 | 135 | 22.5 | 27.4 | 0.00 | 0.48 | 0.48 | 30 | 1009.7 |
| 20260506164547 | 18 | 135 | 29.0 | 46.7 | 0.00 | 0.48 | 0.48 | 30 | 1009.6 |
| 20260506164047 | 20 | 135 | 25.7 | 33.8 | 0.00 | 0.48 | 0.48 | 30 | 1009.7 |
| 20260506163548 | 20 | 135 | 24.1 | 33.8 | 0.00 | 0.48 | 0.48 | 31 | 1009.6 |
| 20260506163048 | 21 | 152 | 12.9 | 24.1 | 0.00 | 0.48 | 0.48 | 39 | 1009.5 |
| 20260506162547 | 22 | 135 | 8.0 | 9.7 | 0.00 | 0.48 | 0.48 | 42 | 1009.5 |
| 20260506162047 | 22 | 117 | 3.2 | 4.8 | 0.00 | 0.48 | 0.48 | 45 | 1009.3 |
| 20260506161548 | 21 | 145 | 1.6 | 4.8 | 0.00 | 0.48 | 0.48 | 47 | 1009.4 |
| 20260506161048 | 20 | 143 | 8.0 | 11.3 | 0.00 | 0.48 | 0.48 | 45 | 1009.2 |
| 20260506160547 | 20 | 133 | 4.8 | 8.0 | 0.00 | 0.48 | 0.48 | 47 | 1009.2 |
| 20260506155550 | 20 | 158 | 4.8 | 9.7 | 0.00 | 0.48 | 0.48 | 48 | 1009.2 |
| 20260506155052 | 20 | 147 | 11.3 | 12.9 | 0.00 | 0.48 | 0.48 | 48 | 1009.2 |
| 20260506154552 | 20 | 122 | 9.7 | 12.9 | 0.00 | 0.48 | 0.48 | 50 | 1009.2 |
| 20260506154051 | 20 | 130 | 11.3 | 16.1 | 0.00 | 0.48 | 0.48 | 46 | 1009.3 |
| 20260506153550 | 21 | 135 | 4.8 | 9.7 | 0.00 | 0.48 | 0.48 | 39 | 1009.2 |
| 20260506153052 | 20 | 143 | 4.8 | 8.0 | 0.00 | 0.48 | 0.48 | 40 | 1009.3 |
| 20260506152551 | 20 | 112 | 8.0 | 9.7 | 0.00 | 0.48 | 0.48 | 48 | 1009.3 |
| 20260506152051 | 19 | 120 | 11.3 | 14.5 | 0.00 | 0.48 | 0.48 | 50 | 1009.3 |
| 20260506151552 | 19 | 112 | 4.8 | 8.0 | 0.00 | 0.48 | 0.48 | 38 | 1009.5 |
| 20260506151051 | 19 | 136 | 1.6 | 4.8 | 0.00 | 0.48 | 0.48 | 31 | 1009.4 |
| 20260506150551 | 20 | 146 | 12.9 | 19.3 | 0.00 | 0.48 | 0.48 | 30 | 1009.5 |
| 20260506150052 | 21 | 135 | 12.9 | 16.1 | 0.00 | 0.48 | 0.48 | 30 | 1009.4 |
| 20260506145552 | 21 | 135 | 4.8 | 8.0 | 0.00 | 0.48 | 0.48 | 30 | 1009.3 |
| 20260506145051 | 20 | 135 | 11.3 | 14.5 | 0.00 | 0.48 | 0.48 | 30 | 1009.5 |
| 20260506144551 | 21 | 135 | 11.3 | 16.1 | 0.00 | 0.48 | 0.48 | 28 | 1009.5 |
| 20260506144052 | 20 | 135 | 12.9 | 20.9 | 0.00 | 0.48 | 0.48 | 30 | 1009.4 |
| 20260506143551 | 20 | 135 | 11.3 | 14.5 | 0.00 | 0.48 | 0.48 | 30 | 1009.5 |
| 20260506143051 | 20 | 135 | 20.9 | 32.2 | 0.00 | 0.48 | 0.48 | 30 | 1009.4 |
| 20260506142551 | 20 | 135 | 11.3 | 16.1 | 0.00 | 0.48 | 0.48 | 31 | 1009.6 |
| 20260506142050 | 19 | 135 | 27.4 | 40.2 | 0.00 | 0.48 | 0.48 | 30 | 1009.7 |
| 20260506141551 | 18 | 135 | 22.5 | 37.0 | 0.00 | 0.48 | 0.48 | 31 | 1009.8 |
| 20260506141050 | 18 | 135 | 12.9 | 19.3 | 0.00 | 0.48 | 0.48 | 32 | 1009.8 |
| 20260506140552 | 18 | 135 | 16.1 | 27.4 | 0.00 | 0.48 | 0.48 | 32 | 1009.8 |
| 20260506140051 | 19 | 135 | 11.3 | 16.1 | 0.00 | 0.48 | 0.48 | 32 | 1009.8 |
| 20260506135551 | 19 | 135 | 16.1 | 32.2 | 0.00 | 0.48 | 0.48 | 31 | 1009.9 |
| 20260506135052 | 20 | 135 | 20.9 | 33.8 | 0.00 | 0.48 | 0.48 | 31 | 1009.6 |
| 20260506134551 | 20 | 135 | 19.3 | 27.4 | 0.00 | 0.48 | 0.48 | 30 | 1009.5 |
| 20260506134050 | 21 | 135 | 19.3 | 24.1 | 0.00 | 0.48 | 0.48 | 30 | 1009.5 |
| 20260506133552 | 21 | 135 | 4.8 | 16.1 | 0.00 | 0.48 | 0.48 | 32 | 1009.5 |
| 20260506133051 | 21 | 135 | 12.9 | 19.3 | 0.00 | 0.48 | 0.48 | 30 | 1009.6 |
| 20260506132551 | 21 | 151 | 8.0 | 24.1 | 0.00 | 0.48 | 0.48 | 30 | 1009.5 |
| 20260506132052 | 21 | 147 | 1.6 | 3.2 | 0.00 | 0.48 | 0.48 | 31 | 1009.6 |
| 20260506131551 | 20 | 135 | 11.3 | 12.9 | 0.00 | 0.48 | 0.48 | 31 | 1009.7 |
| 20260506131050 | 20 | 152 | 12.9 | 16.1 | 0.00 | 0.48 | 0.48 | 31 | 1009.7 |
| 20260506130552 | 21 | 135 | 12.9 | 16.1 | 0.00 | 0.48 | 0.48 | 37 | 1009.7 |
| 20260506130051 | 21 | 135 | 14.5 | 16.1 | 0.00 | 0.48 | 0.48 | 45 | 1009.9 |
| 20260506125551 | 20 | 135 | 4.8 | 8.0 | 0.00 | 0.48 | 0.48 | 50 | 1009.8 |
| 20260506125052 | 20 | 135 | 12.9 | 16.1 | 0.00 | 0.48 | 0.48 | 50 | 1009.9 |
| 20260506124551 | 20 | 139 | 3.2 | 8.0 | 0.00 | 0.48 | 0.48 | 50 | 1009.7 |
| 20260506124051 | 19 | 121 | 3.2 | 9.7 | 0.00 | 0.48 | 0.48 | 52 | 1009.7 |
| 20260506123550 | 19 | 143 | 4.8 | 8.0 | 0.00 | 0.48 | 0.48 | 54 | 1009.8 |
| 20260506123051 | 18 | 141 | 3.2 | 4.8 | 0.00 | 0.48 | 0.48 | 54 | 1009.9 |
| 20260506122552 | 18 | 135 | 4.8 | 8.0 | 0.00 | 0.48 | 0.48 | 55 | 1009.8 |
| 20260506122052 | 18 | 135 | 3.2 | 4.8 | 0.00 | 0.48 | 0.48 | 53 | 1009.7 |
| 20260506121551 | 18 | 135 | 8.0 | 9.7 | 0.00 | 0.48 | 0.48 | 55 | 1009.7 |
| 20260506121051 | 18 | 132 | 8.0 | 9.7 | 0.00 | 0.48 | 0.48 | 54 | 1009.5 |
| 20260506120551 | 18 | 158 | 9.7 | 16.1 | 0.00 | 0.48 | 0.48 | 53 | 1009.5 |
| 20260506120050 | 18 | 158 | 3.2 | 4.8 | 0.00 | 0.51 | 0.48 | 55 | 1009.5 |
| 20260506115552 | 18 | 119 | 4.8 | 11.3 | 0.00 | 0.51 | 0.48 | 55 | 1009.4 |
| 20260506115051 | 18 | 117 | 8.0 | 9.7 | 0.00 | 0.51 | 0.48 | 53 | 1009.4 |
| 20260506114551 | 18 | 136 | 11.3 | 14.5 | 0.00 | 0.51 | 0.48 | 52 | 1009.2 |
| 20260506114052 | 19 | 117 | 11.3 | 16.1 | 0.00 | 0.51 | 0.48 | 53 | 1009.2 |
| 20260506113551 | 19 | 117 | 11.3 | 16.1 | 0.00 | 0.51 | 0.48 | 51 | 1009.2 |
| 20260506113051 | 19 | 123 | 8.0 | 11.3 | 0.00 | 0.51 | 0.48 | 52 | 1009.3 |
| 20260506112550 | 18 | 152 | 11.3 | 14.5 | 0.00 | 0.51 | 0.48 | 53 | 1009.2 |
| 20260506112052 | 18 | 135 | 8.0 | 12.9 | 0.00 | 0.51 | 0.48 | 52 | 1009.2 |
| 20260506111551 | 18 | 120 | 14.5 | 19.3 | 0.00 | 0.51 | 0.48 | 53 | 1009.2 |
| 20260506111051 | 18 | 114 | 12.9 | 16.1 | 0.00 | 0.51 | 0.48 | 52 | 1009.2 |
| 20260506110551 | 19 | 121 | 11.3 | 12.9 | 0.00 | 0.51 | 0.48 | 52 | 1009.3 |
| 20260506110052 | 19 | 135 | 11.3 | 12.9 | 0.00 | 0.51 | 0.48 | 51 | 1009.4 |
| 20260506105551 | 19 | 152 | 4.8 | 9.7 | 0.00 | 0.51 | 0.48 | 51 | 1009.5 |
| 20260506105052 | 19 | 135 | 4.8 | 9.7 | 0.00 | 0.51 | 0.48 | 53 | 1009.6 |
| 20260506104551 | 19 | 116 | 8.0 | 11.3 | 0.00 | 0.51 | 0.48 | 51 | 1009.5 |
| 20260506104051 | 20 | 144 | 3.2 | 4.8 | 0.00 | 0.51 | 0.48 | 53 | 1009.6 |
| 20260506103551 | 18 | 135 | 4.8 | 8.0 | 0.00 | 0.51 | 0.48 | 51 | 1009.7 |
| 20260506103051 | 19 | 135 | 3.2 | 8.0 | 0.00 | 0.51 | 0.48 | 52 | 1009.9 |
| 20260506102550 | 18 | 146 | 4.8 | 9.7 | 0.00 | 0.51 | 0.48 | 54 | 1009.8 |
| 20260506102052 | 19 | 151 | 8.0 | 9.7 | 0.00 | 0.51 | 0.48 | 52 | 1009.9 |
| 20260506101550 | 19 | 135 | 4.8 | 4.8 | 0.00 | 0.51 | 0.48 | 50 | 1010.0 |
| 20260506101051 | 18 | 135 | 3.2 | 4.8 | 0.00 | 0.51 | 0.48 | 51 | 1010.1 |
| 20260506100551 | 18 | 136 | 4.8 | 9.7 | 0.00 | 0.51 | 0.48 | 56 | 1010.2 |
| 20260506100051 | 17 | 112 | 4.8 | 9.7 | 0.00 | 0.51 | 0.48 | 58 | 1010.2 |
| 20260506095551 | 17 | 135 | 3.2 | 4.8 | 0.00 | 0.51 | 0.48 | 56 | 1010.5 |
| 20260506095052 | 17 | 132 | 1.6 | 4.8 | 0.00 | 0.51 | 0.48 | 59 | 1010.4 |
| 20260506094551 | 17 | 112 | 1.6 | 1.6 | 0.00 | 0.51 | 0.48 | 60 | 1010.5 |
| 20260506094051 | 17 | 146 | 3.2 | 4.8 | 0.00 | 0.51 | 0.48 | 63 | 1010.5 |
| 20260506093552 | 16 | 112 | 3.2 | 4.8 | 0.00 | 0.51 | 0.48 | 63 | 1010.6 |
| 20260506093051 | 16 | 144 | 3.2 | 4.8 | 0.00 | 0.51 | 0.48 | 64 | 1010.6 |
| 20260506092551 | 16 | 135 | 1.6 | 3.2 | 0.00 | 0.51 | 0.48 | 61 | 1010.6 |
| 20260506092050 | 16 | 149 | 3.2 | 4.8 | 0.00 | 0.51 | 0.48 | 66 | 1010.7 |
| 20260506091552 | 16 | 134 | 3.2 | 4.8 | 0.00 | 0.51 | 0.48 | 66 | 1010.7 |
| 20260506091051 | 16 | 129 | 1.6 | 3.2 | 0.00 | 0.51 | 0.48 | 68 | 1010.7 |
| 20260506090552 | 16 | 158 | 1.6 | 1.6 | 0.00 | 0.51 | 0.48 | 65 | 1010.8 |
| 20260506090051 | 15 | 135 | 1.6 | 4.8 | 0.00 | 0.51 | 0.48 | 62 | 1010.9 |
| 20260506085551 | 16 | 135 | 4.8 | 9.7 | 0.00 | 0.51 | 0.48 | 61 | 1010.8 |
| 20260506085052 | 16 | 135 | 4.8 | 9.7 | 0.00 | 0.51 | 0.48 | 62 | 1010.9 |
| 20260506084551 | 16 | 135 | 4.8 | 9.7 | 0.00 | 0.51 | 0.48 | 68 | 1010.8 |
| 20260506084052 | 16 | 135 | 3.2 | 4.8 | 0.03 | 0.51 | 0.48 | 70 | 1010.9 |
| 20260506083551 | 15 | 142 | 3.2 | 4.8 | 0.03 | 0.51 | 0.48 | 70 | 1010.9 |
| 20260506083051 | 14 | 135 | 3.2 | 9.7 | 0.03 | 0.51 | 0.48 | 69 | 1011.0 |
| 20260506082552 | 14 | 135 | 9.7 | 12.9 | 0.03 | 0.51 | 0.48 | 69 | 1011.1 |
| 20260506082052 | 14 | 135 | 4.8 | 8.0 | 0.03 | 0.51 | 0.48 | 71 | 1011.0 |
| 20260506081550 | 14 | 135 | 4.8 | 9.7 | 0.03 | 0.51 | 0.48 | 73 | 1011.0 |
| 20260506081053 | 13 | 135 | 4.8 | 8.0 | 0.03 | 0.51 | 0.48 | 78 | 1011.1 |
| 20260506080551 | 13 | 135 | 8.0 | 9.7 | 0.03 | 0.51 | 0.48 | 80 | 1011.2 |